[Date Prev][Date Next][Thread Prev][Thread Next] - [Date Index][Thread Index][Author Index]
2 Line ISS Keps 1-16
- Subject: [sarex] 2 Line ISS Keps 1-16
- From: "Dave Larsen PhD" <doc@xxxxxxxxxxx>
- Date: Fri, 16 Jan 2004 02:10:21 -0800
ISS
1 25544U 98067A 04016.22679398 .00020126 00000-0 19855-3 0 204
2 25544 51.6300 24.1579 0007878 55.6140 330.8037 15.65888097294327
----
Via the sarex mailing list at AMSAT.ORG courtesy of AMSAT-NA.
To unsubscribe, send "unsubscribe sarex" to Majordomo@amsat.org
AMSAT Home